SCP
0 0 0 0 0 0 0 0 0 0 0 0 0 0 0 0 0 0 0 0 0 0 0 0 0 0 0 0 0 0 0 0 0 0 0 0 0 0 0 0 0 0 0
0 0 0 0 0 0 0 0 0 0 0 0 0 0 0 0 0 0 0 0 0 0 0 0 0 0 0 0 0 0 0 0 0 0 0 0 0 0 0 0 0 0 0
0 0 0 0 0 0 0 0 0 0 0 0 0 0 0 0 0 0 0 0 0 0 0 0 0 0 0 0 0 0 0 0 0 0 0 0 0 0 0 0 0 0 0
0 0 0 0 0 0 0 0 0 0 0 0 0 0 0 0 0 0 0 0 0 0 0 0 0 0 0 0 0 0 0 0 0 0 0 0 0 0 0 0 0 0 0
0 0 0 0 0 0 0 0 0 0 0 0 0 0 0 0 0 0 0 0 0 0 0 0 0 0 0 0 0 0 0 0 0 0 0 0 0 0 0 0 0 0 0
0 0 0 0 0 0 0 0 0 0 0 0 0 0 0 0 0 0 0 0 0 0 0 0 0 0 0 0 0 0 0 0 0 0 0 0 0 0 0 0 0 0 0
0 0 0 0 0 0 0 0 0 0 0 0 0 0 0 0 0 0 0 0 0 0 0 0 0 0 0 0 0 0 0 0 0 0 0 0 0 0 0 0 0 0 0
0 0 0 0 0 0 0 0 0 0 0 0 0 0 0 0 0 0 0 0 0 0 0 0 0 0 0 0 0 0 0 0 0 0 0 0 0 0 0 0 0 0 0
0 0 0 0 0 0 0 0 0 0 0 0 0 0 0 0 0 0 0 0 0 0 0 0 0 0 0 0 0 0 0 0 0 0 0 0 0 0 0 0 0 0 0
0 0 0 0 0 0 0 0 0 0 0 0 0 0 0 0 0 0 0 0 0 0 0 0 0 0 0 0 0 0 0 0 0 0 0 0 0 0 0 0 0 0 0
0 0 0 0 0 0 0 0 0 0 0 0 0 0 0 0 0 0 0 0 0 0 0 0 0 0 0 0 0 0 0 0 0 0 0 0 0 0 0 0 0 0 0
0 0 0 0 0 0 0 0 0 0 0 0 0 0 0 0 0 0 0 0 0 0 0 0 0 0 0 0 0 0 0 0 0 0 0 0 0 0 0 0 0 0 0
0 0 0 0 0 0 0 0 0 0 0 0 0 0 0 0 0 0 0 0 0 0 0 0 0 0 0 0 0 0 0 0 0 0 0 0 0 0 0 0 0 0 0
0 0 0 0 0 0 0 0 0 0 0 0 0 0 0 0 0 0 0 0 0 0 0 0 0 0 0 0 0 0 0 0 0 0 0 0 0 0 0 0 0 0 0
0 0 0 0 0 0 0 0 0 0 0 0 0 0 0 0 0 0 0 0 0 0 0 0 0 0 0 0 0 0 0 0 0 0 0 0 0 0 0 0 0 0 0
0 0 0 0 0 0 0 0 0 0 0 0 0 0 0 0 0 0 0 0 0 0 0 0 0 0 0 0 0 0 0 0 0 0 0 0 0 0 0 0 0 0 0
0 0 0 0 0 0 0 0 0 0 0 0 0 0 0 0 0 0 0 0 0 0 0 0 0 0 0 0 0 0 0 0 0 0 0 0 0 0 0 0 0 0 0
0 0 0 0 0 0 0 0 0 0 0 0 0 0 0 0 0 0 0 0 0 0 0 0 0 0 0 0 0 0 0 0 0 0 0 0 0 0 0 0 0 0 0
0 0 0 0 0 0 0 0 0 0 0 0 0 0 0 0 0 0 0 0 0 0 0 0 0 0 0 0 0 0 0 0 0 0 0 0 0 0 0 0 0 0 0
0 0 0 0 0 0 0 0 0 0 0 0 0 0 0 0 0 0 0 0 0 0 0 0 0 0 0 0 0 0 0 0 0 0 0 0 0 0 0 0 0 0 0
-0 0 0 0 0 0 0 0 0 0 0 0 0 0 0 0 0 0 0 0 0 0 0 0 0 0 0 0 0 0 0 0 0 0 0 0 0 0 0 0 0 0 0
-0 -0 -0 0 0 0 0 0 0 0 0 0 0 0 0 0 0 0 0 0 0 0 0 0 0 0 0 0 0 0 0 0 0 0 0 0 0 0 0 0 0 0 0
-0 -0 0 0 0 0 0 0 0 0 0 0 0 0 0 0 0 0 0 0 0 0 0 0 0 0 0 0 0 0 0 0 0 0 0 0 0 0 0 0 0 0 0
0 0 0 0 0 0 0 0 0 0 0 0 0 0 0 0 0 0 0 0 0 0 0 0 0 0 0 0 0 0 0 0 0 0 0 0 0 0 0 0 0 0 0
0 0 0 0 0 0 0 0 0 0 0 0 0 0 0 0 0 0 0 0 0 0 0 0 0 0 0 0 0 0 0 0 0 0 0 0 0 0 0 0 0 0 0
0 0 0 0 0 0 0 0 0 0 0 0 0 0 0 0 0 0 0 0 0 0 0 0 0 0 0 0 0 0 0 0 0 0 0 0 0 0 0 0 0 0 0
Wind_Speed_500mb
66 66 66 64 62 62 63 61 59 55 54 53 51 50 50 50 50 50 49 48 46 43 41 38 36 34 33 32 30 29 28 27 28 26 25 25 24 27 29 33 36 37 40
55 65 67 65 65 65 66 64 62 61 59 57 54 53 53 52 52 51 49 47 45 42 39 38 35 34 33 32 31 30 29 28 28 28 28 27 27 29 31 32 34 39 44
44 54 64 68 68 68 67 66 67 66 64 62 59 57 54 53 53 51 49 48 46 42 41 39 36 35 33 32 30 29 29 28 28 29 31 31 32 33 33 32 32 32 36
38 48 57 64 66 68 67 68 69 69 69 66 62 58 55 54 54 52 51 49 47 44 42 40 38 35 32 32 31 30 29 27 26 28 30 32 34 36 40 43 38 36 37
35 42 50 56 61 66 69 69 69 72 72 68 64 61 58 58 56 54 53 50 48 45 43 41 38 36 34 33 32 30 29 27 26 26 28 30 33 37 39 43 47 46 41
44 46 47 52 58 64 67 69 71 74 74 73 70 66 62 60 57 55 54 52 49 47 45 41 40 38 35 34 33 30 29 27 25 25 27 30 32 36 39 41 46 51 51
47 49 53 54 57 60 63 68 72 75 76 77 75 70 66 61 57 56 55 52 50 48 45 42 41 38 36 35 31 28 28 26 25 26 27 31 34 35 38 38 41 45 48
45 50 53 57 59 59 62 66 70 74 77 78 77 72 67 62 59 57 56 53 51 49 47 43 41 40 35 31 29 29 27 24 26 27 27 30 33 34 36 39 42 47 50
45 50 51 54 58 60 62 64 67 71 75 78 77 74 71 65 61 59 58 56 54 51 47 46 43 38 32 32 28 29 25 24 25 27 28 30 30 31 36 39 39 46 52
46 44 46 49 51 56 56 59 62 67 71 73 75 74 70 65 61 58 59 57 55 52 48 46 41 35 34 28 31 26 26 23 26 31 27 29 30 33 35 39 41 43 46
50 51 50 47 48 46 47 50 55 60 66 69 72 71 69 65 60 58 60 57 55 51 48 44 39 33 29 33 29 32 21 27 32 26 25 24 35 36 36 35 33 32 33
54 50 47 47 44 42 43 44 48 53 59 62 65 68 67 62 57 56 56 53 50 48 45 40 37 30 31 34 35 37 32 30 26 23 24 28 31 27 28 26 22 22 24
51 47 44 41 39 36 40 43 47 50 54 58 62 65 64 60 58 54 54 52 49 48 45 43 37 45 38 41 44 32 24 29 23 26 29 24 24 21 14 15 16 18 19
45 42 38 37 35 33 37 40 45 49 53 56 58 61 59 58 58 58 58 57 55 53 51 42 49 50 46 42 31 26 29 25 27 25 21 19 16 9 10 9 11 13 14
40 35 32 31 31 32 35 39 41 40 43 47 51 52 55 59 60 59 61 61 52 44 39 51 50 42 37 32 25 23 25 25 21 20 17 9 3 3 2 7 12 16 18
35 34 31 30 30 32 33 35 37 38 35 36 40 44 52 53 53 54 48 43 37 41 51 44 37 31 29 23 22 27 25 21 17 11 8 7 5 3 4 9 11 13 15
30 29 30 30 29 29 30 31 33 31 34 35 38 44 40 35 40 39 41 43 43 46 41 34 32 27 22 26 28 25 24 17 11 9 8 8 8 6 6 6 7 10 14
29 28 27 28 27 26 25 26 28 29 27 25 27 26 26 30 38 43 41 38 44 41 38 33 31 31 31 30 26 23 19 17 14 13 8 11 10 7 5 5 8 12 14
23 23 22 21 21 21 19 19 20 21 21 20 19 22 24 27 30 34 38 40 42 40 39 36 35 33 29 25 21 18 17 16 15 13 13 14 13 10 6 5 8 11 13
28 26 24 23 20 17 15 13 15 16 17 21 24 27 30 35 40 43 41 38 33 30 33 33 32 28 22 19 18 15 15 17 16 17 15 13 10 6 3 4 8 11 11
32 29 25 21 17 13 10 11 11 14 18 21 26 33 35 37 39 38 34 32 34 34 32 30 25 22 19 19 18 18 18 16 17 18 16 11 7 3 5 9 12 15 17
34 31 26 22 17 12 8 3 2 10 20 26 27 27 24 23 24 27 30 29 30 30 28 25 23 20 17 17 18 18 19 19 18 12 8 3 2 6 9 12 16 21 24
27 27 26 25 25 24 21 22 23 24 26 27 25 22 18 19 20 24 28 29 29 27 26 25 22 18 17 18 18 17 14 10 8 6 2 5 9 12 16 20 23 26 29
22 18 15 16 18 15 18 18 18 19 18 15 14 15 18 23 27 27 27 28 27 26 26 24 22 22 22 19 17 15 13 11 6 6 12 16 19 23 26 30 33 36 38
20 18 14 15 15 12 8 3 5 3 6 15 15 9 16 18 21 23 24 25 26 27 28 28 27 26 23 20 19 17 13 9 10 13 17 21 24 27 31 36 39 43 45
22 18 14 11 8 7 9 11 18 19 19 19 23 25 24 26 25 24 25 26 26 27 27 27 26 26 25 23 21 17 14 13 16 19 22 24 27 29 33 37 42 47 49
Wind_Direction_500mb
246 247 249 251 251 251 250 250 250 249 249 250 252 252 251 250 250 250 250 250 250 249 249 250 251 253 255 258 260 261 264 268 276 284 292 295 298 299 303 310 314 318 323
250 249 250 251 251 251 251 251 249 249 249 250 252 251 250 250 250 250 250 251 250 250 250 251 251 253 254 256 258 261 264 269 276 283 288 294 301 305 305 308 311 315 318
258 255 252 251 252 253 253 252 249 248 247 248 249 250 250 250 250 250 249 248 247 246 247 248 249 250 252 256 258 262 265 269 274 281 290 296 298 300 301 304 309 310 313
269 261 257 254 255 256 256 253 250 249 248 249 250 252 251 251 249 248 247 246 246 246 246 247 248 249 249 251 256 260 264 270 274 280 288 295 300 303 307 310 310 310 314
287 275 268 264 259 257 255 253 251 249 248 249 249 250 249 249 248 247 247 245 245 244 245 246 247 247 247 249 254 259 262 266 270 277 287 294 300 305 311 317 321 323 329
287 285 280 272 264 259 256 253 251 249 248 247 247 248 248 248 248 249 247 245 244 243 243 243 243 244 246 249 251 255 259 264 272 280 286 294 299 307 313 319 323 328 339
288 284 281 276 271 265 261 256 252 250 249 247 247 247 248 248 248 247 247 245 244 243 242 240 241 242 242 246 250 254 258 264 274 279 290 298 302 308 313 320 322 323 327
309 294 282 279 275 270 264 260 256 253 251 250 249 248 247 248 247 245 244 243 241 240 238 237 237 238 241 244 245 251 253 261 268 278 289 293 299 306 311 315 318 319 323
312 304 301 290 282 276 270 266 262 257 253 250 249 247 247 247 245 244 242 240 238 237 234 234 234 236 237 238 241 246 250 258 268 281 285 290 296 302 306 310 313 319 323
312 301 296 296 291 282 277 271 267 262 258 253 250 248 247 246 244 242 240 238 237 236 234 234 232 228 229 233 242 253 255 258 277 275 283 291 301 301 300 305 313 320 325
316 307 299 295 293 288 280 274 270 265 261 255 251 247 246 245 242 238 237 236 236 235 234 233 229 223 227 241 246 251 256 261 268 273 280 292 291 291 297 303 312 323 328
314 310 303 298 295 288 280 272 265 261 258 255 252 248 245 242 239 236 236 236 234 233 231 226 217 214 230 240 242 243 249 263 267 267 280 285 286 292 298 305 324 336 338
312 309 306 301 298 292 279 273 265 259 254 252 248 246 243 240 236 233 232 231 230 228 223 214 202 227 226 229 237 246 252 252 264 273 279 281 294 310 316 324 349 4 3
313 308 306 306 301 292 281 274 267 263 257 251 246 243 240 236 232 228 226 227 222 220 212 210 233 230 228 239 232 232 244 259 266 268 272 285 298 316 319 345 20 40 50
314 311 310 310 309 298 288 281 275 270 264 263 262 250 239 234 231 228 225 222 221 218 229 244 235 233 233 221 218 240 252 256 257 263 268 275 273 270 334 35 46 50 39
328 325 320 318 314 306 295 284 276 267 255 252 244 242 242 233 231 226 221 221 216 238 244 230 228 224 205 207 226 238 236 238 242 253 264 205 193 117 89 68 52 45 37
340 332 327 319 313 307 297 283 270 265 250 243 244 241 239 236 229 215 216 233 239 228 217 215 192 188 196 217 228 225 223 221 225 232 216 161 147 133 109 78 63 52 37
359 356 349 337 325 317 303 285 271 262 254 251 259 255 243 233 230 230 224 214 200 202 190 171 172 197 217 222 218 213 213 214 216 209 192 156 146 132 119 86 49 35 25
360 358 358 354 340 329 314 294 276 264 261 258 231 211 209 206 199 194 192 187 174 160 162 186 208 215 211 205 201 207 212 202 195 186 165 150 141 133 112 60 31 13 3
19 15 17 11 359 341 320 295 269 249 234 217 201 187 172 168 164 165 163 157 162 183 203 206 198 190 189 189 191 186 171 166 168 165 163 156 148 137 107 25 5 357 346
28 23 22 15 3 342 318 283 252 222 210 190 164 151 152 154 149 146 158 184 202 206 195 184 177 174 175 172 166 163 163 164 158 161 161 160 153 124 15 353 334 320 315
40 43 43 45 39 28 23 17 169 152 146 148 148 144 143 153 169 189 202 202 192 187 182 180 175 175 173 170 166 164 160 156 154 154 149 142 34 1 332 318 316 316 315
37 47 53 63 77 86 92 104 114 122 124 126 129 139 162 187 180 189 191 185 184 181 179 178 178 175 181 178 171 173 170 166 169 175 217 292 310 313 315 315 313 312 313
33 34 44 61 67 87 113 119 123 124 133 156 166 168 185 204 212 198 189 189 189 188 187 183 185 188 188 182 178 182 190 201 227 292 304 307 315 321 320 318 320 322 321
21 34 27 11 12 26 63 321 284 198 171 197 218 219 247 233 215 206 205 201 197 195 192 192 195 196 194 193 197 203 214 238 267 282 290 300 309 313 317 319 321 318 316
328 328 302 302 303 259 255 240 243 254 266 270 256 240 236 234 226 218 214 211 210 208 206 206 205 203 204 206 210 219 232 248 264 274 285 295 304 312 316 317 317 315 313
Wind_Speed_850mb
66 66 66 64 62 62 63 61 59 55 54 53 51 50 50 50 50 50 49 48 46 43 41 38 36 34 33 32 30 29 28 27 28 26 25 25 24 27 29 33 36 37 40
55 65 67 65 65 65 66 64 62 61 59 57 54 53 53 52 52 51 49 47 45 42 39 38 35 34 33 32 31 30 29 28 28 28 28 27 27 29 31 32 34 39 44
44 54 64 68 68 68 67 66 67 66 64 62 59 57 54 53 53 51 49 48 46 42 41 39 36 35 33 32 30 29 29 28 28 29 31 31 32 33 33 32 32 32 36
38 48 57 64 66 68 67 68 69 69 69 66 62 58 55 54 54 52 51 49 47 44 42 40 38 35 32 32 31 30 29 27 26 28 30 32 34 36 40 43 38 36 37
35 42 50 56 61 66 69 69 69 72 72 68 64 61 58 58 56 54 53 50 48 45 43 41 38 36 34 33 32 30 29 27 26 26 28 30 33 37 39 43 47 46 41
44 46 47 52 58 64 67 69 71 74 74 73 70 66 62 60 57 55 54 52 49 47 45 41 40 38 35 34 33 30 29 27 25 25 27 30 32 36 39 41 46 51 51
47 49 53 54 57 60 63 68 72 75 76 77 75 70 66 61 57 56 55 52 50 48 45 42 41 38 36 35 31 28 28 26 25 26 27 31 34 35 38 38 41 45 48
45 50 53 57 59 59 62 66 70 74 77 78 77 72 67 62 59 57 56 53 51 49 47 43 41 40 35 31 29 29 27 24 26 27 27 30 33 34 36 39 42 47 50
45 50 51 54 58 60 62 64 67 71 75 78 77 74 71 65 61 59 58 56 54 51 47 46 43 38 32 32 28 29 25 24 25 27 28 30 30 31 36 39 39 46 52
46 44 46 49 51 56 56 59 62 67 71 73 75 74 70 65 61 58 59 57 55 52 48 46 41 35 34 28 31 26 26 23 26 31 27 29 30 33 35 39 41 43 46
50 51 50 47 48 46 47 50 55 60 66 69 72 71 69 65 60 58 60 57 55 51 48 44 39 33 29 33 29 32 21 27 32 26 25 24 35 36 36 35 33 32 33
54 50 47 47 44 42 43 44 48 53 59 62 65 68 67 62 57 56 56 53 50 48 45 40 37 30 31 34 35 37 32 30 26 23 24 28 31 27 28 26 22 22 24
51 47 44 41 39 36 40 43 47 50 54 58 62 65 64 60 58 54 54 52 49 48 45 43 37 45 38 41 44 32 24 29 23 26 29 24 24 21 14 15 16 18 19
45 42 38 37 35 33 37 40 45 49 53 56 58 61 59 58 58 58 58 57 55 53 51 42 49 50 46 42 31 26 29 25 27 25 21 19 16 9 10 9 11 13 14
40 35 32 31 31 32 35 39 41 40 43 47 51 52 55 59 60 59 61 61 52 44 39 51 50 42 37 32 25 23 25 25 21 20 17 9 3 3 2 7 12 16 18
35 34 31 30 30 32 33 35 37 38 35 36 40 44 52 53 53 54 48 43 37 41 51 44 37 31 29 23 22 27 25 21 17 11 8 7 5 3 4 9 11 13 15
30 29 30 30 29 29 30 31 33 31 34 35 38 44 40 35 40 39 41 43 43 46 41 34 32 27 22 26 28 25 24 17 11 9 8 8 8 6 6 6 7 10 14
29 28 27 28 27 26 25 26 28 29 27 25 27 26 26 30 38 43 41 38 44 41 38 33 31 31 31 30 26 23 19 17 14 13 8 11 10 7 5 5 8 12 14
23 23 22 21 21 21 19 19 20 21 21 20 19 22 24 27 30 34 38 40 42 40 39 36 35 33 29 25 21 18 17 16 15 13 13 14 13 10 6 5 8 11 13
28 26 24 23 20 17 15 13 15 16 17 21 24 27 30 35 40 43 41 38 33 30 33 33 32 28 22 19 18 15 15 17 16 17 15 13 10 6 3 4 8 11 11
32 29 25 21 17 13 10 11 11 14 18 21 26 33 35 37 39 38 34 32 34 34 32 30 25 22 19 19 18 18 18 16 17 18 16 11 7 3 5 9 12 15 17
34 31 26 22 17 12 8 3 2 10 20 26 27 27 24 23 24 27 30 29 30 30 28 25 23 20 17 17 18 18 19 19 18 12 8 3 2 6 9 12 16 21 24
27 27 26 25 25 24 21 22 23 24 26 27 25 22 18 19 20 24 28 29 29 27 26 25 22 18 17 18 18 17 14 10 8 6 2 5 9 12 16 20 23 26 29
22 18 15 16 18 15 18 18 18 19 18 15 14 15 18 23 27 27 27 28 27 26 26 24 22 22 22 19 17 15 13 11 6 6 12 16 19 23 26 30 33 36 38
20 18 14 15 15 12 8 3 5 3 6 15 15 9 16 18 21 23 24 25 26 27 28 28 27 26 23 20 19 17 13 9 10 13 17 21 24 27 31 36 39 43 45
22 18 14 11 8 7 9 11 18 19 19 19 23 25 24 26 25 24 25 26 26 27 27 27 26 26 25 23 21 17 14 13 16 19 22 24 27 29 33 37 42 47 49
Wind_Direction_850mb
246 247 249 251 251 251 250 250 250 249 249 250 252 252 251 250 250 250 250 250 250 249 249 250 251 253 255 258 260 261 264 268 276 284 292 295 298 299 303 310 314 318 323
250 249 250 251 251 251 251 251 249 249 249 250 252 251 250 250 250 250 250 251 250 250 250 251 251 253 254 256 258 261 264 269 276 283 288 294 301 305 305 308 311 315 318
258 255 252 251 252 253 253 252 249 248 247 248 249 250 250 250 250 250 249 248 247 246 247 248 249 250 252 256 258 262 265 269 274 281 290 296 298 300 301 304 309 310 313
269 261 257 254 255 256 256 253 250 249 248 249 250 252 251 251 249 248 247 246 246 246 246 247 248 249 249 251 256 260 264 270 274 280 288 295 300 303 307 310 310 310 314
287 275 268 264 259 257 255 253 251 249 248 249 249 250 249 249 248 247 247 245 245 244 245 246 247 247 247 249 254 259 262 266 270 277 287 294 300 305 311 317 321 323 329
287 285 280 272 264 259 256 253 251 249 248 247 247 248 248 248 248 249 247 245 244 243 243 243 243 244 246 249 251 255 259 264 272 280 286 294 299 307 313 319 323 328 339
288 284 281 276 271 265 261 256 252 250 249 247 247 247 248 248 248 247 247 245 244 243 242 240 241 242 242 246 250 254 258 264 274 279 290 298 302 308 313 320 322 323 327
309 294 282 279 275 270 264 260 256 253 251 250 249 248 247 248 247 245 244 243 241 240 238 237 237 238 241 244 245 251 253 261 268 278 289 293 299 306 311 315 318 319 323
312 304 301 290 282 276 270 266 262 257 253 250 249 247 247 247 245 244 242 240 238 237 234 234 234 236 237 238 241 246 250 258 268 281 285 290 296 302 306 310 313 319 323
312 301 296 296 291 282 277 271 267 262 258 253 250 248 247 246 244 242 240 238 237 236 234 234 232 228 229 233 242 253 255 258 277 275 283 291 301 301 300 305 313 320 325
316 307 299 295 293 288 280 274 270 265 261 255 251 247 246 245 242 238 237 236 236 235 234 233 229 223 227 241 246 251 256 261 268 273 280 292 291 291 297 303 312 323 328
314 310 303 298 295 288 280 272 265 261 258 255 252 248 245 242 239 236 236 236 234 233 231 226 217 214 230 240 242 243 249 263 267 267 280 285 286 292 298 305 324 336 338
312 309 306 301 298 292 279 273 265 259 254 252 248 246 243 240 236 233 232 231 230 228 223 214 202 227 226 229 237 246 252 252 264 273 279 281 294 310 316 324 349 4 3
313 308 306 306 301 292 281 274 267 263 257 251 246 243 240 236 232 228 226 227 222 220 212 210 233 230 228 239 232 232 244 259 266 268 272 285 298 316 319 345 20 40 50
314 311 310 310 309 298 288 281 275 270 264 263 262 250 239 234 231 228 225 222 221 218 229 244 235 233 233 221 218 240 252 256 257 263 268 275 273 270 334 35 46 50 39
328 325 320 318 314 306 295 284 276 267 255 252 244 242 242 233 231 226 221 221 216 238 244 230 228 224 205 207 226 238 236 238 242 253 264 205 193 117 89 68 52 45 37
340 332 327 319 313 307 297 283 270 265 250 243 244 241 239 236 229 215 216 233 239 228 217 215 192 188 196 217 228 225 223 221 225 232 216 161 147 133 109 78 63 52 37
359 356 349 337 325 317 303 285 271 262 254 251 259 255 243 233 230 230 224 214 200 202 190 171 172 197 217 222 218 213 213 214 216 209 192 156 146 132 119 86 49 35 25
360 358 358 354 340 329 314 294 276 264 261 258 231 211 209 206 199 194 192 187 174 160 162 186 208 215 211 205 201 207 212 202 195 186 165 150 141 133 112 60 31 13 3
19 15 17 11 359 341 320 295 269 249 234 217 201 187 172 168 164 165 163 157 162 183 203 206 198 190 189 189 191 186 171 166 168 165 163 156 148 137 107 25 5 357 346
28 23 22 15 3 342 318 283 252 222 210 190 164 151 152 154 149 146 158 184 202 206 195 184 177 174 175 172 166 163 163 164 158 161 161 160 153 124 15 353 334 320 315
40 43 43 45 39 28 23 17 169 152 146 148 148 144 143 153 169 189 202 202 192 187 182 180 175 175 173 170 166 164 160 156 154 154 149 142 34 1 332 318 316 316 315
37 47 53 63 77 86 92 104 114 122 124 126 129 139 162 187 180 189 191 185 184 181 179 178 178 175 181 178 171 173 170 166 169 175 217 292 310 313 315 315 313 312 313
33 34 44 61 67 87 113 119 123 124 133 156 166 168 185 204 212 198 189 189 189 188 187 183 185 188 188 182 178 182 190 201 227 292 304 307 315 321 320 318 320 322 321
21 34 27 11 12 26 63 321 284 198 171 197 218 219 247 233 215 206 205 201 197 195 192 192 195 196 194 193 197 203 214 238 267 282 290 300 309 313 317 319 321 318 316
328 328 302 302 303 259 255 240 243 254 266 270 256 240 236 234 226 218 214 211 210 208 206 206 205 203 204 206 210 219 232 248 264 274 285 295 304 312 316 317 317 315 313